Regional Weather Roundup
Issued by NWS

Home | Current Version | Previous Version | Graphics & Text | Print | Product List | Glossary On
Versions: 1 2 3 4 5 6 7 8 9 10 11 12 13 14 15 16 17 18 19 20 21 22 23 24 25 26 27 28 29 30 31 32 33 34 35 36 37 38 39 40 41 42 43 44 45 46 47 48 49 50
000
ASUS43 KLSX 281110
RWRMO

WEATHER SUMMARY FOR MISSOURI
NATIONAL WEATHER SERVICE SPRINGFIELD MO
600 AM CDT THU JUL 28 2016

NOTE: "FAIR" INDICATES FEW OR NO CLOUDS BELOW 12,000 FEET WITH NO
       SIGNIFICANT WEATHER AND/OR OBSTRUCTIONS TO VISIBILITY.
       CURRENT SKY AND/OR WEATHER CONDITIONS ARE NOT AVAILABLE FOR
       CHILLICOTHE AND FARMINGTON.

MOZ001>031-035>038-043-044-053-054-281200-
...NORTHERN AND WESTERN MISSOURI...

CITY           SKY/WX    TMP DP  RH WIND       PRES   REMARKS
KANSAS CTY INT PTCLDY    70  69  97 N6        29.95R
KANSAS C DTWN  CLEAR     75  71  87 CALM      29.93R
LEE`S SUMMIT   CLEAR     73  70  90 N3        29.95R
ST JOSEPH      MOCLDY    69  68  96 CALM      29.96R FOG
CHILLICOTHE      N/A     72  70  93 CALM      29.94R
KIRKSVILLE     CLEAR     67  65  93 W3        29.93S

$$
MOZ066>068-077>081-088>096-101>105-281200-
...SOUTHWEST MISSOURI...

CITY           SKY/WX    TMP DP  RH WIND       PRES   REMARKS
SPRINGFIELD    CLEAR     70  67  90 CALM      29.97R
JOPLIN         CLEAR     72  71  97 S6        29.96R
BRANSON        PTCLDY    72  70  94 CALM      29.98S

$$
MOZ032>034-039>042-045>050-055>058-069>072-281200-
...CENTRAL MISSOURI...

CITY           SKY/WX    TMP DP  RH WIND       PRES   REMARKS
COLUMBIA       MOCLDY    73  73 100 W6        29.91F FOG
JEFFERSON CITY CLEAR     73  71  93 CALM      29.91R
ROLLA          CLEAR     69  67  93 SW3       29.92R
SEDALIA        CLEAR     73  70  90 CALM      29.94R
WHITEMAN AFB   PTCLDY    72  72 100 W1        29.92S
OSAGE BEACH    CLEAR     73  72  96 CALM      29.94R

$$
MOZ051-052-059>065-281200-
...EAST CENTRAL MISSOURI...

CITY           SKY/WX    TMP DP  RH WIND       PRES   REMARKS
ST LOUIS INTL  PTCLDY    77  72  84 W5        29.89R
SPIRIT OF STL  PTCLDY    73  71  93 CALM      29.88R
ST CHARLES     PTCLDY    72  71  97 CALM      29.88R

$$
MOZ072>076-082>087-097>100-106>115-281200-
...SOUTH CENTRAL AND SOUTHEAST MISSOURI...

CITY           SKY/WX    TMP DP  RH WIND       PRES   REMARKS
CAPE GIRARDEAU CLOUDY    73  72  96 S3        29.89F
FARMINGTON     CLOUDY    73  71  93 W3        29.92S
POPLAR BLUFF   CLOUDY    73  72  96 SW3       29.91S
WEST PLAINS    PTCLDY    71  68  90 CALM      29.98R

$$




USA.gov is the U.S. government's official web portal to all federal, state and local government web resources and services.